FW4335 Weather Reports


Display with metric or nautical units.
time (UTC)temp
F
wind
direction
speed
MPH
gust
MPH
rain 1hr
in
rain 24hr
in
rain mn
in
humidity
%
barometer
mb
20260506090035 48 225 1.0 2.0 0.00 0.00 0.00 94 1018.7
20260506083034 48 225 0.0 3.0 0.00 0.00 0.00 94 1018.4
20260506081530 48 202 0.0 2.0 0.00 0.00 0.00 93 1018.3
20260506073038 50 202 0.0 0.0 0.00 0.00 0.00 90 1018.0
20260506061536 52 202 0.0 2.0 0.00 0.00 0.00 88 1017.6
20260506050108 55 225 0.0 3.0 0.00 0.00 0.00 80 1016.9
20260506044535 56 220 0.0 4.0 0.00 0.00 0.00 78 1016.8
20260506043029 58 183 1.0 4.0 0.00 0.00 0.00 76 1016.7
20260506041533 59 169 1.0 5.0 0.00 0.00 0.00 75 1016.5
20260506040042 59 163 2.0 4.0 0.00 0.00 0.00 74 1016.3
20260506034529 60 158 2.0 4.0 0.00 0.00 0.00 73 1016.0
20260506031531 62 147 2.0 4.0 0.00 0.00 0.00 70 1015.5
20260506023028 66 187 2.0 4.0 0.00 0.00 0.00 62 1014.8
20260506021535 68 138 2.0 4.0 0.00 0.00 0.00 60 1014.7
20260506020034 68 140 2.0 5.0 0.00 0.00 0.00 59 1014.6
20260506014606 69 130 4.0 7.0 0.00 0.00 0.00 58 1014.4
20260506011536 72 358 0.0 4.0 0.00 0.00 0.00 57 1014.2
20260506004532 72 346 1.0 4.0 0.00 0.00 0.00 56 1014.2
20260506000030 74 341 1.0 4.0 0.00 0.00 0.00 54 1014.3
20260505234529 75 351 0.0 4.0 0.00 0.00 0.00 52 1014.3
20260505233031 75 44 0.0 3.0 0.00 0.00 0.00 53 1014.5
20260505231535 75 358 1.0 7.0 0.00 0.00 0.00 54 1014.5
20260505224531 75 352 2.0 7.0 0.00 0.00 0.00 53 1014.7
20260505221534 74 13 1.0 6.0 0.00 0.00 0.00 54 1014.9
20260505220030 74 332 1.0 5.0 0.00 0.00 0.00 55 1015.1
20260505214606 74 318 2.0 6.0 0.00 0.00 0.00 55 1015.2
20260505211536 74 3 1.0 5.0 0.00 0.00 0.00 55 1015.4
20260505210036 73 344 2.0 8.0 0.00 0.00 0.00 54 1015.5
20260505204531 74 12 1.0 6.0 0.00 0.00 0.00 53 1015.7
20260505203037 74 328 1.0 5.0 0.00 0.00 0.00 54 1015.8
20260505201529 73 336 2.0 5.0 0.00 0.00 0.00 56 1015.9
20260505194529 72 351 2.0 7.0 0.00 0.00 0.00 57 1016.1
20260505193031 71 2 2.0 8.0 0.00 0.00 0.00 57 1016.2
20260505190143 70 12 2.0 7.0 0.00 0.00 0.00 59 1016.3
20260505184529 70 345 2.0 7.0 0.00 0.00 0.00 60 1016.4
20260505183035 69 336 2.0 8.0 0.00 0.00 0.00 60 1016.4
20260505181531 69 340 2.0 6.0 0.00 0.00 0.00 61 1016.4
20260505180033 69 335 2.0 6.0 0.00 0.00 0.00 62 1016.4
20260505174530 69 330 2.0 9.0 0.00 0.00 0.00 62 1016.4
20260505173029 68 323 1.0 5.0 0.00 0.00 0.00 63 1016.4
20260505171533 67 341 2.0 8.0 0.00 0.00 0.00 64 1016.4
20260505170036 67 351 2.0 5.0 0.00 0.00 0.00 65 1016.4
20260505164644 67 344 1.0 6.0 0.00 0.00 0.00 65 1016.4
20260505161609 66 335 1.0 4.0 0.00 0.00 0.00 68 1016.4
20260505153035 64 18 1.0 4.0 0.00 0.00 0.00 72 1016.3
20260505151532 62 64 0.0 3.0 0.00 0.00 0.00 75 1016.4
20260505121608 49 241 0.0 3.0 0.00 0.00 0.00 94 1015.2
20260505120036 50 228 0.0 3.0 0.00 0.00 0.00 94 1015.2
20260505114605 50 208 1.0 3.0 0.00 0.00 0.00 93 1015.1
20260505111532 50 225 0.0 3.0 0.00 0.00 0.00 92 1014.9
20260505101604 52 203 0.0 3.0 0.00 0.00 0.00 90 1014.5
20260505100030 53 247 0.0 4.0 0.00 0.00 0.00 90 1014.5
20260505094530 53 247 0.0 3.0 0.00 0.00 0.00 89 1014.4
20260505093032 54 257 0.0 4.0 0.00 0.00 0.00 88 1014.3
20260505091605 54 220 0.0 3.0 0.00 0.00 0.00 86 1014.2